Skip Page Navigation
NASA JPL Caltech
NASA Logo - Jet Propulsion Laboratory + View the NASA Portal
+ Center for Near-Earth Object Studies
JPL Home Earth Solar System Stars & Galaxies Technology
JPL Solar System Dynamics
BODIES ORBITS EPHEMERIDES TOOLS PHYSICAL DATA DISCOVERY FAQ SITE MAP
IMPORTANT: The SSD Announcement email list is now available. Major changes are coming in the near future, including possible hostname and/or URL changes. To be notified of such changes, subscribe to this email list.

Please visit this page for more details.


JPL Small-Body Database Browser
Search: [ help ]  
14448 (1992 VQ)
Classification: Main-belt Asteroid          SPK-ID: 2014448
Ephemeris | Orbit Diagram | Orbital Elements | Mission Design | Physical Parameters | Discovery Circumstances | Close-Approach Data ]

[ show orbit diagram ]
Orbital Elements at Epoch 2459000.5 (2020-May-31.0) TDB
Reference: JPL 32 (heliocentric ecliptic J2000)
 Element Value Uncertainty (1-sigma)   Units 
e .1857412898011097 4.3204e-08  
a 3.094791673862201 1.5276e-08 au
q 2.5199610766933 1.4076e-07 au
i 1.658377625261842 3.3665e-06 deg
node 123.4985373174837 0.00016301 deg
peri 290.3188501992644 0.00016343 deg
M 10.67124740982714 1.0698e-05 deg
tp 2458941.553469977022
(2020-Apr-02.05346998)
5.893e-05 TDB
period 1988.591398296117
5.44
1.4723e-05
4.031e-08
d
yr
n .1810326647839564 1.3403e-09 deg/d
Q 3.669622271031101 1.8113e-08 au
  Orbit Determination Parameters
   # obs. used (total)      1717  
   data-arc span      13981 days (38.28 yr)  
   first obs. used      1981-10-24  
   last obs. used      2020-02-03  
   planetary ephem.      DE431  
   SB-pert. ephem.      SB431-N16  
   condition code      0  
   norm. resid. RMS      .50537  
   source      ORB  
   producer      Otto Matic  
   solution date      2020-Feb-22 20:57:54  

Additional Information
 Earth MOID = 1.53194 au 
 Jupiter MOID = 1.69938 au 
 T_jup = 3.196 
[ show covariance matrix ]

Ephemeris | Orbit Diagram | Orbital Elements | Mission Design | Physical Parameters | Discovery Circumstances | Close-Approach Data ]

Physical Parameter Table
Parameter Symbol Value Units Sigma Reference Notes
absolute magnitude H 13.5   n/a MPO337381  
diameter diameter 11.050 km 0.121 urn:nasa:pds:neowise_diameters_albedos::2.0[mainbelt] (http://adsabs.harvard.edu/abs/2011ApJ...741...68M)  
geometric albedo albedo 0.069   0.011 urn:nasa:pds:neowise_diameters_albedos::2.0[mainbelt] (http://adsabs.harvard.edu/abs/2011ApJ...741...68M)  

14448 (1992 VQ)          Discovered 1992-Nov-02 by Ueda, S., Kaneda, H. at Kushiro
Reference: 20000418/Numbers.arcLast Updated: 2004-04-19

[ hide close-approach data ]
Close-Approach Data   ...sorted by Date/Time (TDB)
Date/Time (TDB) Time Uncertainty
(days_HH:MM)
Body Nominal Distance (au) Minimum Distance (au) Maximum Distance (au) V-relative (km/s) V-infinity (km/s) JD (TDB) Time Uncertainty (minutes) Semi-major axis (km) Semi-minor axis (km) range-LOV angle (deg) N-sigma BP Orbit Ref. Reference Modified
1936-Mar-05 16:08 00:02 Jupiter 1.73059628420195 1.73059594486804 1.73059662353546 1.62390371030001 1.2877048855578 2428233.172076158 1.9360578739431 58.3118639476175 51.5610107585548 77.9213958184482 2425367.44266046 T 32 CATAB v2.0f-lin.ifort 2020-Feb-22 20:58:09 2020-Feb-22 20:58
1946-Jan-28 06:38 00:02 Jupiter 1.92307654464665 1.92307564944414 1.9230774398497 2.13840267175015 1.92142197259196 2431848.776095523 1.61414722748662 98.6921901250638 5.00974482170447 -88.0217275016038 2322822.45921278 T 32 CATAB v2.0f-lin.ifort 2020-Feb-22 20:58:09 2020-Feb-22 20:58
1996-Sep-07 03:57 < 00:01 Jupiter 1.85833252266756 1.85833203552693 1.85833300980798 2.44294681646961 2.2486429266214 2450333.664837507 0.585906855774696 45.8735792925405 7.2625130236805 89.1206579210856 2469055.97094373 T 32 CATAB v2.0f-lin.ifort 2020-Feb-22 20:58:09 2020-Feb-22 20:58
2006-Jul-25 22:29 < 00:01 Jupiter 1.74585481962775 1.7458543979061 1.7458552413489 1.55509046706099 1.20332133962872 2453942.436756987 0.35285660597133 90.1416782000571 64.490405886268 -50.9983700110045 2090664.41649538 T 32 CATAB v2.0f-lin.ifort 2020-Feb-22 20:58:09 2020-Feb-22 20:58
2067-Jan-23 12:19 00:01 Jupiter 1.73332194198814 1.73332151711924 1.73332236685655 1.71905252782488 1.4063433074193 2476039.013262260 1.19103339544914 54.494008561785 50.6671002528433 -16.4824056006743 1816913.85158536 T 32 CATAB v2.0f-lin.ifort 2020-Feb-22 20:58:09 2020-Feb-22 20:58
2076-Dec-14 20:07 00:01 Jupiter 1.87168054075625 1.87167996774851 1.87168111376431 1.94588088413243 1.69745673719744 2479652.338439778 1.45181170799983 89.6849800888421 13.6842494554226 -88.5804718540088 2560421.65111694 T 32 CATAB v2.0f-lin.ifort 2020-Feb-22 20:58:09 2020-Feb-22 20:58
2127-Jul-27 09:52 00:03 Jupiter 1.89049396375576 1.89049301680878 1.89049491070285 2.72487630927209 2.55516437360692 2498137.911047118 2.5429029015858 79.4411214804001 12.2421586693647 82.5823913953814 1706133.30582057 T 32 CATAB v2.0f-lin.ifort 2020-Feb-22 20:58:09 2020-Feb-22 20:58
2137-Jun-12 07:32 00:03 Jupiter 1.71823418893987 1.7182338068575 1.71823457102206 1.51153210768613 1.13965224037755 2501745.814225587 2.83954620912702 97.1493277086732 81.0631422593085 59.1990700420384 2342463.03990195 T 32 CATAB v2.0f-lin.ifort 2020-Feb-22 20:58:09 2020-Feb-22 20:58
2197-Dec-11 22:15 00:04 Jupiter 1.74606710574482 1.74606609037183 1.74606812111602 1.86453990028551 1.58313072644788 2523843.427191975 4.28688472783632 106.346241036173 42.3648643250917 -37.1900546648622 1005304.78347423 T 32 CATAB v2.0f-lin.ifort 2020-Feb-22 20:58:09 2020-Feb-22 20:58

Alternate Designations
 1992 VQ = 1981 UF16 = 1998 YE28 
Ephemeris | Orbit Diagram | Orbital Elements | Mission Design | Physical Parameters | Discovery Circumstances | Close-Approach Data ]
ABOUT SSD CREDITS/AWARDS PRIVACY/COPYRIGHT GLOSSARY LINKS
FirstGov 2020-Mar-29 16:52 UT
(server date/time)  
NASA Home Page
Site Manager:   Ryan S. Park
Webmaster  Alan B. Chamberlin